Location: Sherrills_Ford_Terrell
(35.6000°N, 80.9830°W)
Time: 18:58:52
(UTC-05:00)

ISS - Visible Passes

Search period start: 17 January 2018 00:00
Search period end: 27 January 2018 00:00
Orbit: 402 x 407 km, 51.6° (Epoch: 18 January)

Date Brightness Start Highest point End Pass type
(mag) Time Alt. Az. Time Alt. Az. Time Alt. Az.
17 Jan -2.2 05:30:29 34° ESE 05:30:29 34° ESE 05:32:31 10° SE visible
18 Jan -2.1 06:13:29 19° SW 06:13:29 19° SW 06:15:42 10° S visible
19 Jan -0.9 05:23:53 12° SSE 05:23:53 12° SSE 05:24:14 10° SSE visible
22 Jan -2.1 19:19:05 10° SSW 19:20:45 23° S 19:20:45 23° S visible
23 Jan -1.8 18:27:57 10° SSE 18:29:49 15° SE 18:31:07 12° ESE visible
23 Jan -0.9 20:02:53 10° WSW 20:03:48 17° WSW 20:03:48 17° WSW visible
24 Jan -4.0 19:10:24 10° SW 19:13:39 89° SE 19:14:04 66° NE visible
25 Jan -3.1 18:18:19 10° SSW 18:21:22 39° SE 18:24:13 11° ENE visible
25 Jan -1.1 19:55:28 10° W 19:56:54 17° WNW 19:56:54 17° WNW visible
26 Jan -2.5 19:02:26 10° WSW 19:05:27 34° NW 19:06:58 21° NNE visible
